This is the latest recevied weather packets stored in our database for station/object OE3TEC-15. If no packets are shown the sender has not sent any weather packets the latest 10 day(s).
| Time | Temp. | Humidity | Pressure | Rain* | Wind** | Luminosity | Snow |
|---|---|---|---|---|---|---|---|
| 1788511340 | 26.11° C | 50% | 1020 hPa | 0 mm | - | 216 W/m² | - |
| 1788510101 | 26.11° C | 53% | 1020.1 hPa | 0 mm | - | 672 W/m² | - |
| 1788508255 | 25° C | 53% | 1020.3 hPa | 0 mm | - | 409 W/m² | - |
| 1788504572 | 21.67° C | 61% | 1020.3 hPa | 0 mm | - | 181 W/m² | - |
| 1788503333 | 22.22° C | 59% | 1020.4 hPa | 0 mm | - | 239 W/m² | - |
| 1788502093 | 21.11° C | 62% | 1020.4 hPa | 0 mm | - | 106 W/m² | - |
| 1788499627 | 20° C | 67% | 1020.3 hPa | 0 mm | - | 56 W/m² | - |
| 1788499027 | 19.44° C | 67% | 1020.3 hPa | 0 mm | - | 34 W/m² | - |
| 1788498421 | 19.44° C | 69% | 1020.3 hPa | 0 mm | - | 23 W/m² | - |
| 1788497183 | 18.89° C | 69% | 1020.1 hPa | 0 mm | - | 20 W/m² | - |
| 1788493463 | 18.89° C | 69% | 1020.1 hPa | 0 mm | - | 0 W/m² | - |
| 1788489124 | 19.44° C | 67% | 1020.3 hPa | 0 mm | - | 0 W/m² | - |
| 1788488502 | 19.44° C | 67% | 1019.9 hPa | 0 mm | - | 0 W/m² | - |
| 1788487884 | 18.89° C | 68% | 1019.9 hPa | 0 mm | - | 0 W/m² | - |
| 1788487279 | 18.89° C | 69% | 1020 hPa | 0 mm | - | 0 W/m² | - |
| 1788485405 | 18.89° C | 69% | 1020.4 hPa | 0 mm | - | 0 W/m² | - |
| 1788484165 | 18.89° C | 69% | 1020.3 hPa | 0 mm | - | 0 W/m² | - |
| 1788476186 | 20° C | 63% | 1021 hPa | 0 mm | - | 0 W/m² | - |
| 1788474310 | 20° C | 63% | 1021.2 hPa | 0 mm | - | 0 W/m² | - |
| 1788473069 | 20° C | 63% | 1021.1 hPa | 0 mm | - | 0 W/m² | - |
| 1788472466 | 20° C | 63% | 1021.1 hPa | 0 mm | - | 0 W/m² | - |
| 1788471207 | 20.56° C | 60% | 1021.4 hPa | 0 mm | - | 0 W/m² | - |
| 1788469967 | 21.11° C | 59% | 1021.1 hPa | 0 mm | - | 0 W/m² | - |
| 1788468746 | 21.67° C | 56% | 1021.5 hPa | 0 mm | - | 0 W/m² | - |
| 1788467506 | 22.22° C | 54% | 1021.4 hPa | 0 mm | - | 0 W/m² | - |
* Rain latest hour (hover to see other rain measurements)
** Current wind speed in m/s (hover to see current wind gust speed)